Flag for Portugal Weather past 2 weeks in Faro, Portugal

Now
63 °F

Partly cloudy.


Feels Like: 63 °F
Forecast: 60 / 66 °F
Wind: 10 mph from Southwest

Location: Faro / Aeroporto

Current Time: Apr 25, 2015 at 11:50:33 PM

Latest Report: Apr 25, 2015 at 11:00 PM


Visibility: N/A

Pressure: 29.98 "Hg

Humidity: 88%

Dew point: 59 °F

Location of FaroLocation

Historic Weather in Faro — Graph

°F

Faro temperature yesterday

Maximum temperature yesterday: 66 °F (at 4:30 PM)
Minimum temperature yesterday: 52 °F (at 5:30 AM)
Average temperature yesterday: 61 °F

Past Weeks' High & Low Weather Summary

 TemperatureHumidityPressure
High72 °F (Apr 18, 4:00 PM)100% (Apr 11, 7:00 AM)30.21 "Hg (Apr 11, 7:00 AM)
Low52 °F (Apr 11, 7:00 AM)29% (Apr 18, 5:00 PM)29.92 "Hg (Apr 15, 4:30 PM)
Average62 °F74%30.06 "Hg
* Reported Apr 10 10:00 PM — Apr 25 10:00 PM, Faro, Weather by CustomWeather, © 2015

Note: Actual official high and low records may vary slightly from our data, if they occured in-between our weather recording intervals... More about our weather records

Advertising

Faro weather history for previous 24 hours

 ConditionsComfort  
Time TempWeatherWind HumidityBarometerVisibility
10:00 PM
Sat, Apr 25
63 °FPartly cloudy.10 mph94%29.98 "HgN/A
9:30 PM63 °FPartly cloudy.10 mph94%29.98 "HgN/A
9:00 PM63 °FScattered clouds.8 mph94%29.98 "HgN/A
8:30 PM63 °FScattered clouds.8 mph88%29.98 "HgN/A
8:00 PM63 °FScattered clouds.8 mph88%29.98 "HgN/A
7:30 PM64 °FScattered clouds.8 mph83%29.98 "HgN/A
7:00 PM64 °FPartly sunny.10 mph83%29.98 "HgN/A
6:30 PM64 °FPartly sunny.10 mph83%29.98 "HgN/A
6:00 PM64 °FScattered clouds.12 mph83%29.98 "HgN/A
5:30 PM64 °FScattered clouds.10 mph83%29.98 "HgN/A
5:00 PM66 °FPassing clouds.13 mph78%29.98 "HgN/A
4:30 PM66 °FScattered clouds.10 mph78%29.98 "HgN/A
4:00 PM68 °FScattered clouds.10 mph73%29.98 "HgN/A
3:30 PM68 °FScattered clouds.10 mph78%30.01 "HgN/A
3:00 PM66 °FBroken clouds.12 mph78%30.01 "HgN/A
2:30 PM68 °FBroken clouds.10 mph78%30.01 "HgN/A
2:00 PM68 °FBroken clouds.9 mph78%30.04 "HgN/A
1:30 PM66 °FBroken clouds.9 mph83%30.04 "HgN/A
1:00 PM64 °FBroken clouds.10 mph88%30.04 "HgN/A
12:30 PM66 °FBroken clouds.9 mph83%30.04 "HgN/A
12:00 PM66 °FBroken clouds.9 mph83%30.04 "HgN/A
11:30 AM64 °FBroken clouds.8 mph88%30.04 "HgN/A
11:00 AM64 °FBroken clouds.8 mph88%30.04 "HgN/A
10:30 AM64 °FBroken clouds.10 mph88%30.07 "HgN/A
10:00 AM64 °FBroken clouds.8 mph88%30.04 "HgN/A
9:30 AM63 °FBroken clouds.7 mph94%30.04 "HgN/A
9:00 AM63 °FScattered clouds.6 mph94%30.04 "HgN/A
8:30 AM63 °FScattered clouds.5 mph94%30.04 "HgN/A
8:00 AM63 °FScattered clouds.7 mph88%30.04 "HgN/A
7:30 AM63 °FPartly cloudy.7 mph94%30.04 "HgN/A
7:00 AM61 °FPassing clouds.5 mph100%30.04 "HgN/A
6:30 AM61 °FPassing clouds.6 mph94%30.04 "HgN/A
6:00 AM61 °FPassing clouds.6 mph94%30.01 "HgN/A
5:30 AM61 °FPassing clouds.7 mph94%30.01 "HgN/A
5:00 AM63 °FPartly cloudy.9 mph88%30.01 "HgN/A
4:30 AM63 °FPassing clouds.10 mph88%30.04 "HgN/A
4:00 AM63 °FPartly cloudy.8 mph94%30.04 "HgN/A
3:30 AM63 °FPartly cloudy.9 mph94%30.04 "HgN/A
3:00 AM63 °FPartly cloudy.9 mph94%30.04 "HgN/A
2:30 AM63 °FPartly cloudy.9 mph94%30.04 "HgN/A
2:00 AM63 °FPartly cloudy.9 mph94%30.04 "HgN/A
1:30 AM63 °FPartly cloudy.8 mph94%30.07 "HgN/A
1:00 AM63 °FPartly cloudy.9 mph94%30.07 "HgN/A
12:30 AM63 °FPartly cloudy.9 mph94%30.07 "HgN/A
12:00 AM63 °FPassing clouds.9 mph94%30.07 "HgN/A
11:30 PM
Fri, Apr 24
63 °FPassing clouds.9 mph88%30.07 "HgN/A
11:00 PM63 °FPassing clouds.9 mph88%30.04 "HgN/A
Weather by CustomWeather, © 2015

See weather overviewHow to use our weather pages